This demonstration page uses our WeatherBlox Daily Observations layout. Learn more.

Left ArrowRight Arrow

Hourly Observations for July 26, 2015

Temp ( °F °C ) Dew Point ( °F °C ) Humidity (%) Winds ( mph kmh ) Pressure ( in mb ) Visibility ( mi km ) Precip ( " mm )
12:53 am 00:53 Clear 72 22.2 40 4.4 31 31 NNE 3 6 29.88 1012 10 16 0.00 0.00
1:53 am 01:53 Clear 70 21.1 39 3.9 32 32 Calm 29.88 1012 10 16 0.00 0.00
2:53 am 02:53 Clear 66 18.9 39 3.9 37 37 WNW 3 6 29.88 1012 10 16 0.00 0.00
3:53 am 03:53 Clear 65 18.3 43 6.1 45 45 Calm 29.88 1012 10 16 0.00 0.00
4:53 am 04:53 Clear 64 17.8 42 5.6 45 45 Calm 29.88 1012 10 16 0.00 0.00
5:53 am 05:53 Clear 63 17.2 41 5 45 45 Calm 29.89 1012 10 16 0.00 0.00
6:53 am 06:53 Sunny 63 17.2 42 5.6 47 47 NE 3 6 29.90 1012 10 16 0.00 0.00
7:09 am 07:09 Mostly Sunny 66 18.9 42 5.6 42 42 Calm 29.91 1013 10 16 0.00 0.00
7:53 am 07:53 Sunny 70 21.1 41 5 35 35 Calm 29.90 1013 10 16 0.00 0.00
8:53 am 08:53 Sunny 76 24.4 45 7.2 33 33 Calm 29.90 1013 10 16 0.00 0.00
9:53 am 09:53 Sunny 80 26.7 44 6.7 28 28 Calm 29.89 1012 10 16 0.00 0.00
10:53 am 10:53 Sunny 84 28.9 44 6.7 25 25 NNE 3 6 29.88 1012 10 16 0.00 0.00
11:53 am 11:53 Sunny 87 30.6 42 5.6 21 21 VRB 5 7 29.86 1011 10 16 0.00 0.00
12:53 pm 12:53 Sunny 88 31.1 43 6.1 21 21 VRB 3 6 29.85 1011 10 16 0.00 0.00
1:53 pm 13:53 Sunny 92 33.3 43 6.1 18 18 undefined N/A 29.83 1010 10 16 0.00 0.00
2:53 pm 14:53 Sunny 96 35.6 42 5.6 15 15 S 13 20 29.80 1009 10 16 0.00 0.00
3:53 pm 15:53 Sunny 95 35 41 5 15 15 SSE 12 19 29.77 1008 10 16 0.00 0.00
4:53 pm 16:53 Sunny 93 33.9 41 5 16 16 SSE 17 28 29.75 1008 10 16 0.00 0.00
5:53 pm 17:53 Mostly Sunny 93 33.9 43 6.1 18 18 S 17 28 29.74 1007 10 16 0.00 0.00
6:53 pm 18:53 Mostly Sunny 94 34.4 42 5.6 17 17 S 15 24 29.74 1007 10 16 0.00 0.00
7:53 pm 19:53 Sunny 90 32.2 32 0 13 13 WNW 9 15 29.76 1008 10 16 0.00 0.00
8:53 pm 20:53 Partly Cloudy 85 29.4 40 4.4 20 20 WNW 10 17 29.79 1009 10 16 0.00 0.00
9:53 pm 21:53 Clear 82 27.8 43 6.1 25 25 NNW 7 11 29.83 1010 10 16 0.00 0.00
10:53 pm 22:53 Clear 80 26.7 44 6.7 28 28 NW 9 15 29.85 1011 10 16 0.00 0.00
11:53 pm 23:53 Mostly Clear 81 27.2 44 6.7 27 27 N 12 19 29.87 1011 10 16 0.00 0.00

Powered by AerisWeather